This is the latest recevied weather packets stored in our database for station/object N5CNB-2. If no packets are shown the sender has not sent any weather packets the latest 10 day(s).
| Time | Temp. | Humidity | Pressure | Rain* | Wind** | Luminosity | Snow |
|---|---|---|---|---|---|---|---|
| 1777689053 | 12.78° C | 95% | 1015.4 hPa | 0 mm | - | - | - |
| 1777688156 | 13.33° C | 95% | 1015.2 hPa | 0 mm | - | - | - |
| 1777687264 | 13.33° C | 95% | 1014.6 hPa | 0 mm | - | - | - |
| 1777686352 | 13.33° C | 95% | 1013.9 hPa | 0 mm | - | - | - |
| 1777685456 | 13.33° C | 95% | 1013.6 hPa | 0.25 mm | - | - | - |
| 1777684552 | 13.33° C | 95% | 1013.4 hPa | 0.25 mm | - | - | - |
| 1777683656 | 13.89° C | 95% | 1013.6 hPa | 1.02 mm | - | - | - |
| 1777682753 | 13.89° C | 96% | 1013.5 hPa | 1.02 mm | - | - | - |
| 1777681854 | 13.89° C | 96% | 1013.5 hPa | 1.52 mm | - | - | - |
| 1777680956 | 14.44° C | 96% | 1013.9 hPa | 2.03 mm | - | - | - |
| 1777680062 | 14.44° C | 96% | 1013.5 hPa | 1.27 mm | - | - | - |
| 1777679160 | 14.44° C | 96% | 1013.2 hPa | 1.52 mm | - | - | - |
| 1777678260 | 15° C | 96% | 1013.2 hPa | 1.52 mm | - | - | - |
| 1777677360 | 15° C | 96% | 1013.4 hPa | 1.02 mm | - | - | - |
| 1777676472 | 15° C | 96% | 1012.1 hPa | 1.27 mm | - | - | - |
| 1777675559 | 15° C | 95% | 1012.1 hPa | 2.03 mm | - | - | - |
| 1777674661 | 15° C | 95% | 1012.5 hPa | 1.27 mm | - | - | - |
| 1777673758 | 15° C | 95% | 1009.8 hPa | 1.27 mm | - | - | - |
| 1777672855 | 15° C | 95% | 1010.6 hPa | 1.02 mm | - | - | - |
| 1777671965 | 15° C | 95% | 1010.6 hPa | 0 mm | - | - | - |
| 1777671060 | 15.56° C | 95% | 1010 hPa | 0.25 mm | - | - | - |
| 1777670155 | 15.56° C | 95% | 1009.9 hPa | 0.51 mm | - | - | - |
| 1777669254 | 15.56° C | 96% | 1010.3 hPa | 1.02 mm | - | - | - |
| 1777668357 | 15.56° C | 96% | 1011 hPa | 1.27 mm | - | - | - |
| 1777667458 | 15.56° C | 96% | 1010.7 hPa | 1.27 mm | - | - | - |
* Rain latest hour (hover to see other rain measurements)
** Current wind speed in m/s (hover to see current wind gust speed)